AO-07 1 07530U 74089B 26118.77341683 -.00000025 00000-0 13642-3 0 9997 2 07530 101.9929 131.5011 0011977 224.1388 311.2956 12.53697303354326 UO-11 1 14781U 84021B 26118.81886293 .00001332 00000-0 14150-3 0 9992 2 14781 97.8023 84.9611 0007503 359.7515 0.3698 14.90662976249776 AO-27 1 22825U 93061C 26118.77320672 .00000110 00000-0 58933-4 0 9994 2 22825 98.6902 186.1984 0007390 241.3722 118.6718 14.30928485699934 FO-29 1 24278U 96046B 26118.84766887 .00000015 00000-0 52529-4 0 9993 2 24278 98.5299 334.4618 0349122 224.3592 132.9089 13.53271819466495 GO-32 1 25397U 98043D 26118.82388065 .00000077 00000-0 53348-4 0 9999 2 25397 99.0062 110.3414 0001683 38.7845 321.3453 14.24418401444306 ISS 1 25544U 98067A 26118.65158674 .00007212 00000-0 13886-3 0 9991 2 25544 51.6320 185.2859 0007088 1.2030 358.8974 15.49006627564072 NO-44 1 26931U 01043C 26118.84813044 .00000149 00000-0 86487-4 0 9990 2 26931 67.0527 11.8843 0006483 263.9829 96.0534 14.31936422283381 SO-50 1 27607U 02058C 26118.79300161 .00001269 00000-0 16677-3 0 9990 2 27607 64.5516 281.7957 0075603 271.4499 87.7947 14.82935654257134 CO-55 1 27844U 03031E 26118.58205231 .00000335 00000-0 16415-3 0 9997 2 27844 98.6755 127.7628 0008975 336.7316 23.3456 14.24304052184616 RS-22 1 27939U 03042A 26118.85116435 .00001633 00000-0 26010-3 0 9995 2 27939 98.3469 301.8199 0012510 67.4610 44.1284 14.73379440208280 CO-65 1 32785U 08021C 26118.85413220 .00004937 00000-0 31647-3 0 9996 2 32785 97.8250 99.2738 0008650 184.5661 175.5489 15.08976401977751 CO-66 1 32791U 08021J 26118.42572265 .00017613 00000-0 58934-3 0 9994 2 32791 97.7522 114.0178 0005047 112.4687 247.7087 15.31027972979673 RS-30 1 32953U 08025A 26118.84587404 -.00000018 00000-0 -19878-3 0 9992 2 32953 82.5077 26.1282 0020621 59.7253 300.5864 12.43177569813560 SRMSAT 1 37841U 11058D 26118.88491588 .00000423 00000-0 85950-4 0 9997 2 37841 19.9736 357.8861 0011720 21.9742 69.7815 14.11563844750841 ZACUBE-1 1 39417U 13066B 26118.87607909 .00005387 00000-0 42072-3 0 9995 2 39417 97.8122 80.9478 0043880 58.2683 302.2806 15.00777351673335 Delfi-N3xt 1 39428U 13066N 26118.70913066 .00009395 00000-0 82782-3 0 9998 2 39428 97.8348 39.0869 0075832 12.7353 347.5759 14.94455231667230 GOMX-1 1 39430U 13066Q 26118.81425392 .00002064 00000-0 31685-3 0 9995 2 39430 97.6527 322.3873 0127607 235.8015 123.1045 14.69271015662660 LO-74 1 39440U 13066AA 26118.82164623 .00003228 00000-0 30334-3 0 9997 2 39440 97.8878 67.6169 0057541 189.4620 170.5521 14.93410724669621 AO-73 1 39444U 13066AE 26118.85919362 .00009692 00000-0 61054-3 0 9996 2 39444 97.8246 89.3097 0037209 14.6352 345.5944 15.08798327672223 DTUSAT-2 1 40030U 14033W 26118.55940123 .00007149 00000-0 39353-3 0 9992 2 40030 98.0860 113.1646 0009343 53.4950 306.7140 15.14347183645178 LILACSAT-2 1 40908U 15049K 26118.83973780 .00017096 00000-0 30821-3 0 9993 2 40908 97.4723 153.8499 0008752 78.9868 281.2367 15.49805209588106 Horyu-4 1 41340U 16012D 26118.17498287 .00146179 00000-0 97694-3 0 9992 2 41340 30.9891 79.1787 0006353 260.1112 99.8826 15.73742630562882 Lapan A3 1 41603U 16040E 26118.90739595 .00003781 00000-0 12165-3 0 9997 2 41603 97.1486 116.6867 0010122 181.3514 178.7703 15.32778951547260 CAS-2T 1 41847U 16066G 26118.78568103 .00000676 00000-0 10529-3 0 9998 2 41847 98.3830 195.0792 0340931 279.4964 76.7855 14.44570792497664 TechnoSat 1 42829U 17042E 26118.70972008 .00003744 00000-0 26982-3 0 9998 2 42829 97.4234 278.2773 0016181 261.8014 98.1377 15.04653246479260 AO-91 1 43017U 17073E 26118.58196470 .00010220 00000-0 45114-3 0 9994 2 43017 97.4782 346.8319 0154016 139.4151 221.8683 15.11803898457896 S-Net D 1 43186U 18014G 26118.84019390 .00005000 00000-0 26215-3 0 9992 2 43186 97.5404 23.9477 0008185 176.9669 183.1615 15.16201035451280 S-Net B 1 43187U 18014H 26118.71868993 .00004996 00000-0 26214-3 0 9992 2 43187 97.5409 23.8124 0008940 173.5062 186.6288 15.16171304451260 S-Net A 1 43188U 18014J 26118.70731894 .00004981 00000-0 26110-3 0 9990 2 43188 97.5418 24.0005 0008797 174.1770 185.9567 15.16206312451265 S-Net C 1 43189U 18014K 26118.72229259 .00004971 00000-0 26081-3 0 9996 2 43189 97.5437 24.0825 0010403 168.6246 191.5224 15.16162686449816 Ten-Koh 1 43677U 18084G 26118.78601807 .00002511 00000-0 19287-3 0 9992 2 43677 98.0795 309.0743 0007487 286.5271 73.5130 15.02729623408749 PO-101 1 43678U 18084H 26118.81682299 .00003348 00000-0 27255-3 0 9994 2 43678 98.1072 312.9228 0013063 340.1143 19.9568 15.00206576408814 QO-100 1 43700U 18090A 26118.86016837 .00000141 00000-0 00000 0 0 9994 2 43700 0.0132 260.2247 0001576 168.5140 123.5705 1.00276051 27182 MinXSS-2 1 43758U 18099A 26118.74647289 .00034053 00000-0 75377-3 0 9996 2 43758 97.4563 193.7052 0008834 91.1443 269.0817 15.43685163406493 AO-95 1 43770U 18099N 26118.70618069 .00011793 00000-0 46583-3 0 9993 2 43770 97.4425 179.1674 0009867 154.5586 205.6140 15.25623104405672 SNUSat 2 1 43782U 18099AA 26118.67762821 .00008656 00000-0 39188-3 0 9995 2 43782 97.4105 172.8405 0012171 108.6429 251.6129 15.21060971405503 SnugLite 1 43784U 18099AC 26118.72152319 .00011762 00000-0 45873-3 0 9998 2 43784 97.3912 173.5189 0004621 104.4722 255.7030 15.26080887405776 ITASat 1 1 43786U 18099AE 26118.67237223 .00006972 00000-0 34136-3 0 9999 2 43786 97.4075 171.1854 0013513 158.8985 201.2809 15.18406123405390 EAGLET 1 1 43790U 18099AJ 26118.70702134 .00004162 00000-0 24201-3 0 9997 2 43790 97.4277 169.6894 0012136 150.2092 209.9833 15.12551059404855 ESEO 1 43792U 18099AL 26118.81956159 .00001130 00000-0 85630-4 0 9995 2 43792 97.4017 158.3166 0013352 135.4210 224.8092 15.04090962404387 JO-97 1 43803U 18099AX 26118.67820787 .00016778 00000-0 54342-3 0 9998 2 43803 97.4171 181.3929 0007351 92.0640 268.1443 15.32066189406042 Suomi 100 1 43804U 18099AY 26118.62682942 .00011481 00000-0 43135-3 0 9997 2 43804 97.4230 179.2388 0011808 97.4358 262.8223 15.27274037405853 ISAT 1 43879U 18111D 26118.74297770 .00067046 00000-0 90192-3 0 9991 2 43879 97.5904 50.4801 0008783 110.3217 249.8982 15.57615979403459 UWE-4 1 43880U 18111E 26118.71895120 .00030871 00000-0 69650-3 0 9994 2 43880 97.5860 44.9518 0010086 130.8081 229.4042 15.43124801403141 Sparrow 1 43881U 18111F 26118.80530333 .00094366 00000-0 10244-2 0 9990 2 43881 97.6124 55.4473 0006943 126.0371 234.1531 15.63168573403635 Prox-1 1 44339U 19036A 26118.56682347 .00014031 00000-0 14107-2 0 9995 2 44339 23.9949 85.3933 0006617 177.1323 182.9214 14.89408541366068 Taurus 1 1 44530U 19059C 26118.88679060 .00008566 00000-0 13855-2 0 9991 2 44530 98.6370 280.6890 0009870 107.8167 252.4116 14.71548339351395 TO-108 1 44881U 19093C 26118.83775875 .00001521 00000-0 17804-3 0 9997 2 44881 97.7548 192.2714 0012068 247.6121 112.3817 14.86440078344087 RS-44 1 44909U 19096E 26118.75091624 .00000006 00000-0 -14701-4 0 9997 2 44909 82.5260 12.5571 0216370 259.9519 97.7107 12.79747955296027 SALSAT 1 46495U 20068K 26118.42175207 .00008242 00000-0 29456-3 0 9995 2 46495 97.8859 118.4866 0011633 113.9464 246.2994 15.29049342307759 CSS (TIANHE-1) 1 48274U 21035A 26118.71774772 .00025661 00000-0 27592-3 0 9994 2 48274 41.4670 263.2015 0006751 291.8238 68.1883 15.63121251285433 CUTE 1 49263U 21088D 26118.68842462 .00080941 00000-0 54531-3 0 9994 2 49263 97.4202 213.9836 0001196 157.9503 202.1814 15.74894701254723 TeikyoSat 4 1 49396U 21102B 26118.59997579 .00001837 00000-0 11878-3 0 9992 2 49396 97.3716 150.0070 0013757 102.4738 257.8031 15.09327189245245 Z-Sat 1 49399U 21102E 26118.82751366 .00004629 00000-0 23074-3 0 9996 2 49399 97.3375 155.6510 0018279 62.8310 297.4785 15.17880663245952 KOSEN 1 1 49402U 21102H 26118.38728272 .00008017 00000-0 31232-3 0 9992 2 49402 97.3238 161.5257 0014432 31.0986 329.1104 15.26137106246421 HO-113 1 50466U 21131B 26118.83554777 .00000662 00000-0 21823-3 0 9996 2 50466 98.4950 211.5002 0003018 236.8925 123.1975 14.41309197228005 SNUGLITE 2 1 52899U 22065F 26118.35310428 .00001189 00000-0 23482-3 0 9993 2 52899 98.2130 263.2939 0007713 170.9347 189.1996 14.64250449203705 UmKA 1 (RS40S) 1 57172U 23091G 26118.80302598 .00005742 00000-0 26743-3 0 9993 2 57172 97.5092 177.7018 0011257 294.2278 65.7780 15.20253609156500 CubeBel-2 (EU11S) 1 57175U 23091K 26118.82427726 .00011747 00000-0 43218-3 0 9997 2 57175 97.5090 181.6371 0008386 290.9572 69.0770 15.28000231156769 RS-38S 1 57189U 23091Z 26118.80647197 .00016252 00000-0 48862-3 0 9992 2 57189 97.5123 187.3571 0006363 236.8746 123.1887 15.34459543157113 SONATE-2 1 59112U 24043Q 26118.64819056 .00036533 00000-0 54042-3 0 9996 2 59112 97.5474 266.1633 0006621 30.1363 330.0270 15.55197969120188 GRBBeta 1 60237U 24128C 26118.83529197 .00004308 00000-0 29972-3 0 9994 2 60237 61.9919 29.3627 0046840 124.2911 236.2630 15.06234492 98832 Curium One 1 60242U 24128H 26118.83850185 .00008119 00000-0 47468-3 0 9998 2 60242 61.9808 20.4512 0046477 120.6485 239.9205 15.11710493 98993 ROBUSTA-3A 1 60243U 24128J 26118.71009457 .00008688 00000-0 51788-3 0 9995 2 60243 61.9886 23.1073 0047620 118.0575 242.5348 15.10895420 98940 CatSat 1 60246U 24125J 26118.10282435 .00055486 00000-0 86143-3 0 9998 2 60246 97.2143 330.1466 0023519 12.3250 347.8574 15.53475877 99606 HYPERVIEW-1G (RS66S) 1 61772U 24199AP 26118.73404142 .00080216 00000-0 79455-3 0 9991 2 61772 97.2983 356.3569 0009255 100.7606 259.4697 15.65523998126915 AO-123 1 61781U 24199AY 26118.89183613 .00008118 00000-0 24096-3 0 9997 2 61781 97.3076 348.0158 0015615 122.3284 237.9474 15.34940431126364 JINJUSat 1B 1 63210U 25052A 26118.65881098 .00016602 00000-0 54001-3 0 9997 2 63210 97.4064 15.3935 0001260 245.0324 115.0786 15.31956639 62519 NUSHSAT 1 1 63211U 25052B 26118.71054580 .00020418 00000-0 62121-3 0 9995 2 63211 97.4042 15.8555 0000855 250.2042 109.9108 15.34048988 62559 TEVEL2-4 1 63213U 25052D 26118.27070273 .00017880 00000-0 56518-3 0 9997 2 63213 97.3966 14.6332 0000577 341.4810 18.6411 15.32859435 62460 TEVEL2-5 1 63214U 25052E 26118.61244015 .00019046 00000-0 60429-3 0 9995 2 63214 97.3964 14.9362 0000634 333.5226 26.5983 15.32725762 62515 TEVEL2-6 1 63215U 25052F 26118.68885348 .00017665 00000-0 56141-3 0 9994 2 63215 97.3964 14.9973 0000710 333.6532 26.4674 15.32688828 62528 TEVEL2-1 1 63217U 25052H 26118.70171410 .00017761 00000-0 57283-3 0 9992 2 63217 97.3939 14.6906 0001323 354.5560 5.5667 15.32214619 62511 TEVEL2-3 1 63218U 25052J 26118.69796830 .00017706 00000-0 57025-3 0 9993 2 63218 97.3942 14.7032 0001350 355.0425 5.0803 15.32260244 62515 TEVEL2-2 1 63219U 25052K 26118.63693955 .00017895 00000-0 57707-3 0 9998 2 63219 97.3940 14.6275 0001368 355.7070 4.4159 15.32217578 62502 TEVEL2-9 1 63237U 25052AD 26118.68343600 .00016056 00000-0 54834-3 0 9998 2 63237 97.4003 14.1506 0004995 336.3952 23.7059 15.30377384 62455 TEVEL2-7 1 63238U 25052AE 26118.65008935 .00016498 00000-0 56783-3 0 9990 2 63238 97.4005 14.0530 0005127 336.0294 24.0708 15.30119310 62445 TEVEL2-8 1 63239U 25052AF 26118.46158889 .00016454 00000-0 56678-3 0 9999 2 63239 97.4004 13.8437 0005139 338.3512 21.7511 15.30093335 62410 HYDRA-W 1 63490U 25052BL 26113.93882235 .05662091 24406-5 29537-2 0 9997 2 63490 97.3690 18.2798 0008685 203.5899 156.4993 16.20186780 62336 HADES-ICM (SO-125) 1 63492U 25052BN 26118.46263686 .00421192 00000-0 22989-2 0 9998 2 63492 97.3838 21.4147 0003866 145.4406 214.7113 15.78753249 62930 SPIRONE 1 66657U 25274H 26118.74120742 .00002721 00000-0 26464-3 0 9992 2 66657 97.7469 48.7510 0012287 171.3222 188.8213 14.93337228 22846 K-HERO 1 66660U 25274L 26118.75981289 .00002463 00000-0 23741-3 0 9996 2 66660 97.7480 48.8937 0013926 176.6764 183.4550 14.93771918 22851 SNUGLITE-III DURI 1 66661U 25274M 26118.74925485 .00002302 00000-0 22188-3 0 9998 2 66661 97.7477 48.9019 0014559 178.1326 181.9950 14.93832414 22850 SilverSat 1 66909U 98067XV 26113.44966717 .07226154 12288-4 11979-2 0 9998 2 66909 51.6027 190.0749 0007952 333.4666 26.5949 16.32457272 22308 SAKHACUBE-CHOLBON 1 67290U 25313AU 26118.73252065 .00009934 00000-0 41281-3 0 9990 2 67290 97.3953 194.4172 0010187 161.8970 198.2632 15.23960001 18444 RS95S (QMR-KWT-2) 1 67291U 25313AV 26118.75963840 .00014595 00000-0 58689-3 0 9992 2 67291 97.3951 194.5313 0010011 161.4443 198.7162 15.24968254 18451 Ten-Koh2 1 68261U 25241B 26118.49303690 .00006939 00000-0 30247-3 0 9995 2 68261 51.6483 196.0493 0005701 343.7338 16.3455 15.23255257 7332 JACK-002 1 68417U 26067B 26118.82352596 .00007606 00000-0 36908-3 0 9993 2 68417 97.4531 78.0600 0004124 90.6500 269.5207 15.18762183 4455 DISCO 2 1 68431U 26067R 26118.83232587 .00007803 00000-0 38328-3 0 9994 2 68431 97.4567 78.0629 0003428 130.7144 229.4388 15.18330017 4459 HADES-SA (SpinnyONE) 1 68446U 26067AG 26118.85556686 .00017794 00000-0 89199-3 0 9993 2 68446 97.4375 77.9651 0004952 234.1858 125.8916 15.17397495 4446 PARUS-6U1 1 68456U 26067AS 26118.85717072 .00005910 00000-0 30247-3 0 9999 2 68456 97.4517 78.0114 0004207 220.1186 139.9737 15.16990580 4454 SAL-E 1 68458U 26067AU 26118.85727870 .00008139 00000-0 41455-3 0 9997 2 68458 97.4443 77.9848 0004140 232.6498 127.4359 15.17042542 4455 IO-86 1 40931U 25360.30710720 .00000000 00000-0 12800-3 0 00 2 40931 6.0006 332.5373 0012733 338.8432 8.1437 14.79075515 01 LILIUM-4 1 71922C 26067AC 26089.50133053 -.00014632 00000 0 -74472-3 0 04 2 71922 97.4497 49.1617 0004341 5.9603 355.7042 15.16896692 16